| time (UTC) | temp C | wind direction | speed KPH | gust KPH | rain 1hr cm | rain 24hr cm | rain mn cm | humidity % | barometer mb |
| 20260503010100 | 7 | 0.0 | 0.0 | 0.00 | 0.00 | 0.00 | 81 | 1015.4 | |
| 20260503005041 | 7 | 85 | 0.0 | 1.6 | 0.00 | 0.00 | 0.00 | 81 | 1015.5 |
| 20260503004041 | 7 | 0.0 | 0.0 | 0.00 | 0.00 | 0.00 | 82 | 1015.5 | |
| 20260503003042 | 7 | 0.0 | 0.0 | 0.00 | 0.00 | 0.00 | 80 | 1015.4 | |
| 20260503002042 | 8 | 0.0 | 0.0 | 0.00 | 0.00 | 0.00 | 79 | 1015.6 | |
| 20260503001043 | 7 | 0.0 | 0.0 | 0.00 | 0.00 | 0.00 | 79 | 1015.7 | |
| 20260503000043 | 8 | 0.0 | 0.0 | 0.00 | 0.00 | 0.00 | 78 | 1015.8 | |
| 20260502235103 | 8 | 0.0 | 0.0 | 0.00 | 0.00 | 0.00 | 78 | 1015.8 | |
| 20260502234104 | 8 | 0.0 | 0.0 | 0.00 | 0.00 | 0.00 | 78 | 1015.9 | |
| 20260502233044 | 8 | 0.0 | 0.0 | 0.00 | 0.00 | 0.00 | 78 | 1016.1 | |
| 20260502232044 | 8 | 0.0 | 0.0 | 0.00 | 0.00 | 0.00 | 77 | 1016.2 | |
| 20260502231044 | 8 | 0.0 | 0.0 | 0.00 | 0.00 | 0.00 | 78 | 1016.2 | |
| 20260502230045 | 8 | 0.0 | 0.0 | 0.00 | 0.00 | 0.00 | 77 | 1016.2 | |
| 20260502225047 | 9 | 0.0 | 0.0 | 0.00 | 0.00 | 0.00 | 75 | 1016.2 | |
| 20260502224046 | 8 | 0.0 | 0.0 | 0.00 | 0.00 | 0.00 | 75 | 1016.3 | |
| 20260502223046 | 9 | 0.0 | 0.0 | 0.00 | 0.00 | 0.00 | 73 | 1016.4 | |
| 20260502222048 | 10 | 0.0 | 1.6 | 0.00 | 0.00 | 0.00 | 71 | 1016.5 | |
| 20260502221047 | 10 | 0.0 | 0.0 | 0.00 | 0.00 | 0.00 | 70 | 1016.5 | |
| 20260502220049 | 10 | 0.0 | 0.0 | 0.00 | 0.00 | 0.00 | 70 | 1016.5 | |
| 20260502215109 | 11 | 0.0 | 0.0 | 0.00 | 0.00 | 0.00 | 69 | 1016.5 | |
| 20260502214048 | 11 | 0.0 | 0.0 | 0.00 | 0.00 | 0.00 | 69 | 1016.6 | |
| 20260502213049 | 11 | 0.0 | 0.0 | 0.00 | 0.00 | 0.00 | 70 | 1016.5 | |
| 20260502212049 | 11 | 0.0 | 0.0 | 0.00 | 0.00 | 0.00 | 67 | 1016.5 | |
| 20260502211050 | 12 | 0.0 | 0.0 | 0.00 | 0.00 | 0.00 | 63 | 1016.6 | |
| 20260502210051 | 13 | 0.0 | 0.0 | 0.00 | 0.00 | 0.00 | 57 | 1016.7 | |
| 20260502205051 | 15 | 0.0 | 0.0 | 0.00 | 0.00 | 0.00 | 52 | 1016.7 | |
| 20260502204111 | 15 | 93 | 0.0 | 1.6 | 0.00 | 0.00 | 0.00 | 51 | 1016.8 |
| 20260502203051 | 15 | 0.0 | 0.0 | 0.00 | 0.00 | 0.00 | 50 | 1016.8 | |
| 20260502202052 | 16 | 85 | 0.0 | 1.6 | 0.00 | 0.00 | 0.00 | 49 | 1016.8 |
| 20260502201053 | 16 | 0.0 | 0.0 | 0.00 | 0.00 | 0.00 | 49 | 1016.9 | |
| 20260502200053 | 16 | 83 | 0.0 | 1.6 | 0.00 | 0.00 | 0.00 | 48 | 1016.9 |
| 20260502195053 | 16 | 0.0 | 0.0 | 0.00 | 0.00 | 0.00 | 48 | 1016.9 | |
| 20260502194054 | 17 | 78 | 0.0 | 1.6 | 0.00 | 0.00 | 0.00 | 47 | 1016.7 |
| 20260502193054 | 17 | 93 | 0.0 | 1.6 | 0.00 | 0.00 | 0.00 | 46 | 1016.8 |
| 20260502192054 | 17 | 77 | 0.0 | 1.6 | 0.00 | 0.00 | 0.00 | 47 | 1016.7 |
| 20260502191055 | 16 | 0.0 | 0.0 | 0.00 | 0.00 | 0.00 | 47 | 1016.6 | |
| 20260502190055 | 16 | 0.0 | 0.0 | 0.00 | 0.00 | 0.00 | 48 | 1016.7 | |
| 20260502185055 | 17 | 0.0 | 0.0 | 0.00 | 0.00 | 0.00 | 47 | 1016.6 | |
| 20260502184056 | 18 | 0.0 | 0.0 | 0.00 | 0.00 | 0.00 | 44 | 1016.6 | |
| 20260502183057 | 18 | 0.0 | 0.0 | 0.00 | 0.00 | 0.00 | 43 | 1016.5 | |
| 20260502182058 | 19 | 0.0 | 0.0 | 0.00 | 0.00 | 0.00 | 41 | 1016.4 | |
| 20260502181057 | 20 | 0.0 | 0.0 | 0.00 | 0.00 | 0.00 | 41 | 1016.4 | |
| 20260502170120 | 23 | 55 | 3.2 | 9.7 | 0.00 | 0.00 | 0.00 | 31 | 1016.3 |
| 20260502164101 | 24 | 106 | 1.6 | 4.8 | 0.00 | 0.00 | 0.00 | 30 | 1016.5 |
| 20260502163102 | 24 | 98 | 1.6 | 4.8 | 0.00 | 0.00 | 0.00 | 30 | 1016.6 |
| 20260502162103 | 24 | 94 | 1.6 | 3.2 | 0.00 | 0.00 | 0.00 | 29 | 1016.9 |
| 20260502161102 | 24 | 92 | 1.6 | 4.8 | 0.00 | 0.00 | 0.00 | 29 | 1016.9 |
| 20260502160104 | 24 | 83 | 1.6 | 3.2 | 0.00 | 0.00 | 0.00 | 28 | 1017.0 |
| 20260502152032 | 25 | 71 | 3.2 | 11.3 | 0.00 | 0.00 | 0.00 | 26 | 1017.4 |
| 20260502151032 | 25 | 134 | 1.6 | 8.0 | 0.00 | 0.00 | 0.00 | 26 | 1017.5 |
| 20260502123040 | 24 | 56 | 3.2 | 8.0 | 0.00 | 0.00 | 0.00 | 35 | 1019.6 |
| 20260502122040 | 23 | 119 | 3.2 | 12.9 | 0.00 | 0.00 | 0.00 | 36 | 1019.8 |
| 20260502121040 | 23 | 82 | 3.2 | 9.7 | 0.00 | 0.00 | 0.00 | 37 | 1019.9 |
| 20260502115101 | 23 | 36 | 3.2 | 8.0 | 0.00 | 0.00 | 0.00 | 37 | 1020.2 |
| 20260502114041 | 23 | 45 | 3.2 | 9.7 | 0.00 | 0.00 | 0.00 | 38 | 1020.3 |
| 20260502113042 | 23 | 26 | 3.2 | 9.7 | 0.00 | 0.00 | 0.00 | 38 | 1020.5 |
| 20260502112043 | 22 | 116 | 1.6 | 8.0 | 0.00 | 0.00 | 0.00 | 39 | 1020.5 |
| 20260502111043 | 22 | 48 | 3.2 | 8.0 | 0.00 | 0.00 | 0.00 | 42 | 1020.6 |
| 20260502110103 | 22 | 3 | 3.2 | 8.0 | 0.00 | 0.00 | 0.00 | 41 | 1020.8 |
| 20260502105044 | 22 | 64 | 3.2 | 4.8 | 0.00 | 0.00 | 0.00 | 41 | 1020.8 |
| 20260502104044 | 22 | 79 | 3.2 | 8.0 | 0.00 | 0.00 | 0.00 | 41 | 1021.0 |
| 20260502103045 | 21 | 114 | 3.2 | 8.0 | 0.00 | 0.00 | 0.00 | 42 | 1021.2 |
| 20260502102045 | 21 | 62 | 3.2 | 4.8 | 0.00 | 0.00 | 0.00 | 43 | 1021.2 |
| 20260502101106 | 21 | 23 | 3.2 | 4.8 | 0.00 | 0.00 | 0.00 | 43 | 1021.4 |
| 20260502091047 | 20 | 109 | 1.6 | 8.0 | 0.00 | 0.00 | 0.00 | 44 | 1022.0 |
| 20260502071053 | 13 | 152 | 3.2 | 9.7 | 0.00 | 0.00 | 0.00 | 60 | 1022.6 |
| 20260502070054 | 12 | 140 | 3.2 | 8.0 | 0.00 | 0.00 | 0.00 | 63 | 1022.5 |
| 20260502065055 | 11 | 135 | 3.2 | 9.7 | 0.00 | 0.00 | 0.00 | 63 | 1022.6 |
| 20260502064114 | 11 | 123 | 1.6 | 4.8 | 0.00 | 0.00 | 0.00 | 65 | 1022.5 |
| 20260502063054 | 10 | 139 | 4.8 | 11.3 | 0.00 | 0.00 | 0.00 | 67 | 1022.5 |
| 20260502062115 | 11 | 129 | 3.2 | 9.7 | 0.00 | 0.00 | 0.00 | 67 | 1022.4 |
| 20260502061056 | 10 | 133 | 1.6 | 4.8 | 0.00 | 0.00 | 0.00 | 67 | 1022.4 |
| 20260502060056 | 10 | 116 | 1.6 | 8.0 | 0.00 | 0.00 | 0.00 | 68 | 1022.4 |
| 20260502055056 | 10 | 118 | 1.6 | 4.8 | 0.00 | 0.00 | 0.00 | 69 | 1022.4 |
| 20260502054056 | 9 | 129 | 1.6 | 4.8 | 0.00 | 0.00 | 0.00 | 71 | 1022.3 |
| 20260502053057 | 8 | 111 | 1.6 | 3.2 | 0.00 | 0.00 | 0.00 | 71 | 1022.5 |
| 20260502052058 | 8 | 114 | 1.6 | 3.2 | 0.00 | 0.00 | 0.00 | 73 | 1022.5 |
| 20260502051118 | 7 | 115 | 1.6 | 3.2 | 0.00 | 0.00 | 0.00 | 77 | 1022.5 |
| 20260502050058 | 7 | 112 | 0.0 | 1.6 | 0.00 | 0.00 | 0.00 | 76 | 1022.4 |
| 20260502045058 | 6 | 0.0 | 0.0 | 0.00 | 0.00 | 0.00 | 80 | 1022.3 | |
| 20260502044059 | 5 | 89 | 0.0 | 1.6 | 0.00 | 0.00 | 0.00 | 85 | 1022.4 |
| 20260502043119 | 3 | 0.0 | 0.0 | 0.00 | 0.00 | 0.00 | 89 | 1022.4 | |
| 20260502042100 | 3 | 0.0 | 0.0 | 0.00 | 0.00 | 0.00 | 89 | 1022.4 | |
| 20260502041100 | 4 | 0.0 | 0.0 | 0.00 | 0.00 | 0.00 | 88 | 1022.3 | |
| 20260502040032 | 4 | 89 | 0.0 | 1.6 | 0.00 | 0.00 | 0.00 | 87 | 1022.2 |
| 20260502035032 | 5 | 121 | 0.0 | 1.6 | 0.00 | 0.00 | 0.00 | 85 | 1022.4 |
| 20260502034053 | 5 | 88 | 0.0 | 3.2 | 0.00 | 0.00 | 0.00 | 83 | 1022.4 |
| 20260502033033 | 6 | 111 | 1.6 | 1.6 | 0.00 | 0.00 | 0.00 | 82 | 1022.4 |
| 20260502032054 | 6 | 119 | 0.0 | 1.6 | 0.00 | 0.00 | 0.00 | 81 | 1022.3 |
| 20260502031034 | 6 | 107 | 0.0 | 1.6 | 0.00 | 0.00 | 0.00 | 82 | 1022.4 |
| 20260502030055 | 6 | 130 | 1.6 | 3.2 | 0.00 | 0.00 | 0.00 | 81 | 1022.5 |
| 20260502025056 | 5 | 115 | 0.0 | 1.6 | 0.00 | 0.00 | 0.00 | 84 | 1022.5 |
| 20260502024058 | 3 | 87 | 0.0 | 1.6 | 0.00 | 0.00 | 0.00 | 89 | 1022.5 |
| 20260502023038 | 3 | 91 | 0.0 | 1.6 | 0.00 | 0.00 | 0.00 | 89 | 1022.6 |
| 20260502022037 | 3 | 0.0 | 0.0 | 0.00 | 0.00 | 0.00 | 89 | 1022.8 | |
| 20260502021037 | 3 | 74 | 0.0 | 1.6 | 0.00 | 0.00 | 0.00 | 87 | 1022.7 |
| 20260502020058 | 3 | 0.0 | 0.0 | 0.00 | 0.00 | 0.00 | 88 | 1022.8 | |
| 20260502015038 | 3 | 0.0 | 0.0 | 0.00 | 0.00 | 0.00 | 87 | 1022.8 | |
| 20260502014038 | 4 | 0.0 | 0.0 | 0.00 | 0.00 | 0.00 | 85 | 1022.8 | |
| 20260502013039 | 5 | 0.0 | 0.0 | 0.00 | 0.00 | 0.00 | 82 | 1022.8 | |
| 20260502012039 | 6 | 0.0 | 0.0 | 0.00 | 0.00 | 0.00 | 81 | 1022.9 | |
| 20260502011100 | 6 | 0.0 | 0.0 | 0.00 | 0.00 | 0.00 | 81 | 1023.1 |